User: anonymous   Login
Location: Allison Elementary School
(34.0784°N, 117.7317°W)
Time: 23:20:45
(UTC+00:00)
Language:

CZ-2C R/B - Orbit

View from above orbital plane
View from above orbital plane
View from above satellite
View from above satellite

Ground track
Ground track

The orbit data is extracted from the following two-line orbital elements,

1 36089U 09061B   20028.52536941 -.00000042  00000-0  12148-5 0  9997
2 36089  98.1367   6.8199 0081724 346.6724 120.7619 14.49813752540121
Epoch (UTC): 28 January 2020 12:36:31
Eccentricity: 0.0081724
inclination: 98.1367°
perigee height: 668 km
apogee height: 784 km
right ascension of ascending node: 6.8199°
argument of perigee: 346.6724°
revolutions per day: 14.49813752
mean anomaly at epoch: 120.7619°
orbit number at epoch: 54012

The dashed part of the orbit path shows where the satellite is in the earth's shadow,  

DLR